This demonstration page uses our WeatherBlox Daily Observations layout. Learn more.

Left ArrowRight Arrow

41.86663, -103.66717

Hourly Observations for January 2, 2017

Temp ( °F °C ) Dew Point ( °F °C ) Humidity (%) Winds ( mph kmh ) Pressure ( in mb ) Visibility ( mi km ) Precip ( " mm )
12:53 am 00:53 Clear 25 -3.9 20 -6.7 81 81 ESE 8 13 29.70 1006 10 16 0.00 0.00
1:53 am 01:53 Cloudy 25 -3.9 20 -6.7 81 81 E 7 11 29.68 1005 10 16 0.00 0.00
2:53 am 02:53 Mostly Cloudy 26 -3.3 21 -6.1 81 81 NNE 8 13 29.70 1006 10 16 0.00 0.00
3:53 am 03:53 Cloudy 21 -6.1 16 -8.9 81 81 N 12 19 29.76 1008 10 16 0.00 0.00
4:53 am 04:53 Cloudy 20 -6.7 15 -9.4 81 81 ENE 12 19 29.78 1009 10 16 0.00 0.00
5:36 am 05:36 Partly Cloudy with Mist and Fog 19 -7 16 -9 86 86 N 8 13 29.91 1013 5 8 0.00 0.00
5:44 am 05:44 Mostly Cloudy 19 -7 16 -9 86 86 N 8 13 29.91 1013 7 11 0.00 0.00
5:53 am 05:53 Cloudy 19 -7.2 15 -9.4 84 84 NW 9 15 29.81 1010 10 16 0.00 0.00
6:12 am 06:12 Cloudy 19 -7 16 -9 86 86 NNE 7 11 29.91 1013 10 16 0.00 0.00
6:19 am 06:19 Cloudy 20 -6.7 15 -9.4 81 81 NNE 8 13 29.91 1013 10 16 0.00 0.00
6:26 am 06:26 Cloudy 19 -7 16 -9 86 86 NNE 8 13 29.94 1014 10 16 0.00 0.00
6:53 am 06:53 Cloudy 20 -6.7 16 -8.9 85 85 NNE 7 11 29.84 1011 10 16 0.00 0.00
7:26 am 07:26 Cloudy 19 -7 16 -9 86 86 N 8 13 29.97 1015 10 16 0.00 0.00
7:53 am 07:53 Cloudy 19 -7.2 14 -10 81 81 N 9 15 29.88 1012 10 16 0.00 0.00
8:53 am 08:53 Cloudy 20 -6.7 15 -9.4 81 81 N 8 13 29.91 1013 10 16 0.00 0.00
9:10 am 09:10 Cloudy 19 -7 16 -9 86 86 N 8 13 30.03 1017 10 16 0.00 0.00
9:53 am 09:53 Cloudy 19 -7 14 -10 79 79 NNW 10 17 30.12 1020 10 16 0.00 0.00
10:53 am 10:53 Cloudy 20 -6.7 15 -9.4 81 81 N 10 17 29.98 1015 7 11 0.00 0.00
11:04 am 11:04 Mostly Cloudy 21 -6 16 -9 80 80 N 10 17 30.06 1018 10 16 0.00 0.00
11:53 am 11:53 Cloudy 24 -4.4 14 -10 65 65 NNW 12 19 29.98 1015 10 16 0.00 0.00
12:53 pm 12:53 Mostly Cloudy 27 -2.8 14 -10 58 58 NNW 15 24 29.98 1015 10 16 0.00 0.00
1:53 pm 13:53 Mostly Cloudy 23 -5 11 -11.7 60 60 NNW 17 28 30.03 1017 10 16 0.00 0.00
2:53 pm 14:53 Sunny 21 -6.1 8 -13.3 57 57 NNW 14 22 30.05 1018 10 16 0.00 0.00
3:53 pm 15:53 Sunny 17 -8.3 6 -14.4 62 62 NNW 16 26 30.11 1020 10 16 0.00 0.00
4:53 pm 16:53 Clear 14 -10 4 -15.6 64 64 NNW 10 17 30.18 1022 10 16 0.00 0.00
5:53 pm 17:53 Cloudy 14 -10 4 -15.6 64 64 NNW 10 17 30.20 1023 10 16 0.00 0.00
6:53 pm 18:53 Cloudy 12 -11.1 2 -16.7 64 64 NW 9 15 30.24 1024 10 16 0.00 0.00
7:53 pm 19:53 Cloudy 12 -11.1 2 -16.7 64 64 NNW 12 19 30.24 1024 10 16 0.00 0.00
8:53 pm 20:53 Cloudy 11 -11.7 1 -17.2 64 64 WNW 8 13 30.28 1025 10 16 0.00 0.00
9:53 pm 21:53 Cloudy 10 -12.2 0 -17.8 63 63 NW 13 20 30.29 1026 10 16 0.00 0.00
10:53 pm 22:53 Cloudy 9 -12.8 -1 -18.3 64 64 NW 10 17 30.31 1026 10 16 0.00 0.00
11:53 pm 23:53 Cloudy 9 -12.8 -1 -18.3 64 64 NW 8 13 30.30 1026 10 16 0.00 0.00

Powered by AerisWeather